Aeroporto :
LOGIN :

Iscrizione | Disclaimer

   EN    FR    IT 

 










Sommario :    VFR   VFR Marginale   IFR   IFR Intensivo   IFR Molto Intensivo
Visibilità : 
Base nubi : 
>= 8 km
>= 3000ft
5 / 8 km
1000 / 3000 ft
1500m / 5 km
500 / 1000 ft
800 / 1500m
200 / 500 ft
< 800m
< 200 ft
Simboli :   Temporali  Nebbia  Neve Forte  Precipitazioni Forti  Vento > 20 kt
SIGMETs :   Varie  Temporali  Ghiacco  Turbolenza  Onda orograficha  Ceneri Vulcaniche






- Altitudine del aeroporto : 386 ft
- Codice IATA : QOE


ETNN - Nörvenich Airforce Base

ULTIMO METAR :
  • 300320Z 22015KT 9999 FEW015 SCT030 BKN130 14/11 Q1017 BLU

METARs OBSOLETI :
  • 300220Z 22016KT 9999 SCT010 BKN030 14/11 Q1017 BLU
  • 300120Z 22017KT 9999 SCT010 BKN030 13/11 Q1017 BLU

TAF TAF ETNN
Valido dal 30 a 03 ore il 30 a 12 ore UTC


300200Z 3003/3012 22010KT 9999 NSW SCT012 BKN025
TEMPO 3003/3008 24010G20KT 4000 -DZ BKN010 BKN020
TEMPO 3008/3012 24012KT 7000 NSW SCT012 BKN020 BY ETGL



MetMap, La meteo Aeronautica in un colpo d'occhio ! - Copyright ORBIFLY Dicembre 2007 - Disclaimer

ORBIFLY MET'MAP TEAM :

Programmazione e sviluppo : Alexandra Zaïnal
Concezione : Baudouin d'Aumeries
Aiuto per la programmazione : Marc-Olivier Méhu
Supporto tecnico e logistico : Manuel Goepfert
Aiuto per la traduzione : Arnaldo La Scala

Contatto : metmap@orbifly.com




FONTI E CREDITI :

   NOAA